Location: Lane
(33.5226°N, 79.8788°W)
Time: 08:13:33
(UTC+00:00)

Vanguard 2 - Pass Details

Date: 12 October 2022
Orbit: 553 x 2932 km, 32.9° (Epoch: 08 December)

Event Time Altitude Azimuth Distance (km) Brightness Sun altitude
Rises 21:31:22 0° 282° (WNW) 5,256 12.8 14.9°
Reaches altitude 10° 21:34:39 10° 275° (W) 4,549 12.9 14.3°
Maximum altitude 21:47:02 43° 210° (SSW) 3,397 11.5 11.8°
Drops below altitude 10° 22:03:01 10° 147° (SSE) 5,753 11.8 8.6°
Sets 22:07:51 0° 141° (SE) 6,723 12.1 7.7°
